Rock Hill, SC

4:23 PM EDT on September 28, 2016 (GMT -0400)
Rock Hill-York County-Bryant

Weather History for KUZA - December, 2013

Change the Weather History Date:

Sunday, December 29, 2013

  Actual Average Record
Temperature  
Mean Temperature 46 °F -  
Max Temperature 53 °F 53 °F 74 °F (1984)
Min Temperature 39 °F 34 °F 17 °F (1961)
Degree Days  
Heating Degree Days 19    
Moisture  
Dew Point 42 °F    
Average Humidity 94    
Maximum Humidity 100    
Minimum Humidity 76    
Precipitation  
Precipitation 1.55 in - - ()
Sea Level Pressure  
Sea Level Pressure 29.91 in    
Wind  
Wind Speed 5 mph (NNW)    
Max Wind Speed 13 mph    
Max Gust Speed 18 mph    
Visibility 4 miles    
Events Fog , Rain    
Averages and records for this station are not official NWS values.
T = Trace of Precipitation, MM = Missing Value Source: NWS Daily Summary

Daily Weather History Graph

Daily Weather History Graph

Search for Another Location

Airport or City:

Trip Planner

Search our weather history database for the weather conditions in past years. The results will help you decide how hot, cold, wet, or windy it might be!

Date:

Astronomy

Dec. 29, 2013 Rise Set
Actual Time 7:31 AM EST 5:21 PM EST
Civil Twilight 7:03 AM EST 5:49 PM EST
Nautical Twilight 6:31 AM EST 6:21 PM EST
Astronomical Twilight 6:00 AM EST 6:52 PM EST
Moon 4:16 AM EST (12/29) 2:55 PM EST (12/29)
Length of Visible Light 10h 46m
Length of Day
9h 49m
Waning Crescent, 11% of the Moon is Illuminated
Dec 29
Waning Crescent
Jan 1
New
Jan 7
First Quarter
Jan 15
Full
Jan 24
Last Quarter

Hourly Weather History & Observations

Time (EST) Temp. Windchill Dew Point Humidity Pressure Visibility Wind Dir Wind Speed Gust Speed Precip Events Conditions
12:35 AM 44.1 °F 39.5 °F 37.9 °F 79% 30.08 in 6.0 mi NNW 8.1 mph - 0.01 in Rain Light Rain
12:48 AM 44.6 °F 38.8 °F 37.4 °F 76% 30.11 in 1.8 mi West 11.5 mph - 0.06 in Rain Heavy Rain
12:54 AM 43.0 °F 38.8 °F 37.9 °F 82% 30.13 in 1.5 mi WNW 6.9 mph - 0.09 in Rain Heavy Rain
1:06 AM 42.1 °F - 39.9 °F 92% 30.12 in 2.5 mi Calm Calm - 0.04 in Rain Rain
1:25 AM 42.1 °F - 41.0 °F 96% 30.08 in 2.5 mi Calm Calm - 0.09 in Rain Rain
1:34 AM 42.1 °F 40.2 °F 41.0 °F 96% 30.07 in 3.0 mi East 3.5 mph - 0.10 in Rain Light Rain
1:54 AM 42.1 °F 38.4 °F 39.9 °F 92% 30.05 in 3.0 mi East 5.8 mph - 0.13 in Rain Rain
2:08 AM 42.1 °F 39.2 °F 39.9 °F 92% 30.04 in 2.5 mi ENE 4.6 mph - 0.05 in Rain Rain
2:22 AM 41.0 °F - 39.9 °F 96% 30.04 in 1.8 mi Calm Calm - 0.13 in Rain Heavy Rain
2:24 AM 41.0 °F - 39.9 °F 96% 30.04 in 2.0 mi Calm Calm - 0.13 in Rain Heavy Rain
2:42 AM 41.0 °F 35.8 °F 39.9 °F 96% 30.01 in 3.0 mi East 8.1 mph - 0.18 in Rain Rain
2:54 AM 41.0 °F 37.1 °F 39.9 °F 96% 30.01 in 3.0 mi East 5.8 mph - 0.21 in Rain Rain
3:11 AM 41.0 °F 36.4 °F 39.9 °F 96% 30.00 in 4.0 mi NE 6.9 mph - 0.03 in Rain Rain
3:25 AM 41.0 °F 38.0 °F 39.9 °F 96% 29.96 in 2.5 mi East 4.6 mph - 0.09 in Rain Rain
3:39 AM 41.0 °F 38.0 °F 39.9 °F 96% 29.94 in 2.5 mi Variable 4.6 mph - 0.16 in Rain Heavy Rain
3:48 AM 42.8 °F 40.1 °F 39.2 °F 87% 29.94 in 3.0 mi Variable 4.6 mph - 0.18 in Rain Rain
3:50 AM 42.8 °F - 39.2 °F 87% 29.94 in 3.0 mi Calm Calm - 0.18 in Rain Rain
3:54 AM 42.1 °F 40.2 °F 41.0 °F 96% 29.95 in 4.0 mi Variable 3.5 mph - 0.19 in Rain Rain
4:17 AM 42.1 °F 40.2 °F 41.0 °F 96% 29.93 in 2.0 mi Variable 3.5 mph - 0.09 in Rain Heavy Rain
4:29 AM 42.1 °F 39.2 °F 41.0 °F 96% 29.91 in 3.0 mi NNE 4.6 mph - 0.11 in Rain Rain
4:54 AM 42.1 °F 40.2 °F 41.0 °F 96% 29.89 in 3.0 mi Variable 3.5 mph - 0.16 in Rain Heavy Rain
5:02 AM 42.1 °F 39.2 °F 41.0 °F 96% 29.87 in 2.0 mi NE 4.6 mph - 0.04 in Rain Rain
5:12 AM 42.1 °F - 41.0 °F 96% 29.86 in 4.0 mi Calm Calm - 0.06 in Rain Rain
5:33 AM 42.1 °F - 42.1 °F 100% 29.85 in 2.5 mi Calm Calm - 0.13 in Rain Heavy Rain
5:54 AM 43.0 °F - 43.0 °F 100% 29.86 in 2.0 mi Calm Calm - 0.20 in Rain Heavy Rain
6:02 AM 43.0 °F 41.3 °F 42.1 °F 97% 29.85 in 1.5 mi NNW 3.5 mph - 0.04 in Rain Heavy Rain
6:12 AM 42.1 °F 37.7 °F 42.1 °F 100% 29.85 in 3.0 mi NNW 6.9 mph - 0.07 in Rain Light Rain
6:18 AM 42.1 °F 38.4 °F 42.1 °F 100% 29.84 in 1.8 mi NNW 5.8 mph - 0.14 in Rain Heavy Rain
6:31 AM 42.1 °F 38.4 °F 42.1 °F 100% 29.82 in 2.5 mi NNE 5.8 mph - 0.19 in Rain Rain
6:38 AM 43.0 °F 38.2 °F 42.1 °F 97% 29.83 in 3.0 mi North 8.1 mph - 0.21 in Rain Rain
6:54 AM 43.0 °F 40.3 °F 42.1 °F 97% 29.84 in 2.5 mi NNW 4.6 mph - 0.26 in Rain Heavy Rain
7:11 AM 43.0 °F 36.8 °F 42.1 °F 97% 29.85 in 2.5 mi NNW 11.5 mph 16.1 mph 0.07 in Rain Rain
7:18 AM 42.1 °F 36.1 °F 41.0 °F 96% 29.85 in 3.0 mi NNW 10.4 mph - 0.09 in Rain Rain
7:30 AM 42.1 °F 37.1 °F 41.0 °F 96% 29.83 in 3.0 mi North 8.1 mph - 0.11 in Rain Rain
7:38 AM 42.1 °F 38.4 °F 41.0 °F 96% 29.82 in 4.0 mi NNE 5.8 mph - 0.12 in Rain Light Rain
7:54 AM 42.1 °F 38.4 °F 41.0 °F 96% 29.83 in 5.0 mi North 5.8 mph - 0.13 in Rain Light Rain
8:15 AM 42.1 °F 38.4 °F 42.1 °F 100% 29.81 in 1.8 mi NNE 5.8 mph - 0.02 in Rain Rain
8:28 AM 42.1 °F 37.1 °F 41.0 °F 96% 29.80 in 0.8 mi North 8.1 mph - 0.13 in Rain Heavy Rain
8:34 AM 42.1 °F 37.1 °F 41.0 °F 96% 29.80 in 2.0 mi NNW 8.1 mph - 0.13 in Rain Light Rain
8:50 AM 42.8 °F 38.0 °F 41.0 °F 93% 29.82 in 1.2 mi NNW 8.1 mph - 0.15 in Rain Rain
8:54 AM 42.1 °F 39.2 °F 41.0 °F 96% 29.82 in 1.0 mi Variable 4.6 mph - 0.16 in Rain Rain
9:41 AM 43.0 °F 39.5 °F 42.1 °F 97% 29.83 in 3.0 mi North 5.8 mph - 0.02 in Rain Light Rain
9:54 AM 43.0 °F 39.5 °F 42.1 °F 97% 29.84 in 4.0 mi North 5.8 mph - 0.02 in   Overcast
10:54 AM 45.0 °F - 44.1 °F 97% 29.83 in 10.0 mi Calm Calm - N/A   Overcast
11:19 AM 46.0 °F 43.1 °F 44.1 °F 93% 29.84 in 10.0 mi West 5.8 mph - N/A   Overcast
11:54 AM 46.9 °F - 45.0 °F 93% 29.84 in 10.0 mi West 8.1 mph - N/A   Overcast
12:54 PM 48.9 °F - 46.0 °F 90% 29.83 in 10.0 mi WSW 10.4 mph - N/A   Overcast
1:54 PM 48.9 °F - 46.0 °F 90% 29.83 in 10.0 mi WSW 9.2 mph - N/A   Overcast
2:54 PM 51.1 °F - 46.9 °F 86% 29.82 in 10.0 mi WSW 12.7 mph - N/A   Overcast
3:14 PM 51.1 °F - 48.0 °F 89% 29.82 in 10.0 mi WSW 10.4 mph 18.4 mph N/A   Overcast
3:54 PM 52.0 °F - 48.0 °F 86% 29.83 in 10.0 mi WSW 6.9 mph - N/A   Overcast
4:33 PM 53.1 °F - 48.0 °F 83% 29.83 in 10.0 mi WSW 10.4 mph - N/A   Scattered Clouds
4:54 PM 52.0 °F - 48.0 °F 86% 29.84 in 10.0 mi SW 9.2 mph - N/A   Clear
5:54 PM 48.0 °F - 46.0 °F 93% 29.87 in 10.0 mi WSW 6.9 mph - N/A   Clear
6:54 PM 44.1 °F 40.8 °F 44.1 °F 100% 29.89 in 10.0 mi SW 5.8 mph - N/A   Clear
7:54 PM 45.0 °F - 44.1 °F 97% 29.91 in 8.0 mi Calm Calm - N/A   Scattered Clouds
8:54 PM 43.0 °F - 43.0 °F 100% 29.93 in 10.0 mi Calm Calm - N/A   Partly Cloudy
9:54 PM 42.1 °F 38.4 °F 41.0 °F 96% 29.95 in 10.0 mi WSW 5.8 mph - N/A   Clear
10:31 PM 42.1 °F - 41.0 °F 96% 29.94 in 1.8 mi Calm Calm - N/A   Clear
10:48 PM 42.8 °F 41.1 °F 42.8 °F 100% 29.95 in 0.8 mi SSW 3.5 mph - N/A   Mist
10:54 PM 42.1 °F - 41.0 °F 96% 29.96 in 1.0 mi Calm Calm - N/A   Clear
11:00 PM 39.9 °F 37.8 °F 39.9 °F 100% 29.95 in 0.8 mi NNE 3.5 mph - N/A   Mist
11:08 PM 39.0 °F 35.7 °F 39.0 °F 100% 29.95 in 0.2 mi North 4.6 mph - N/A Fog Fog
11:49 PM 39.2 °F 37.0 °F 39.2 °F 100% 29.96 in 1.0 mi West 3.5 mph - N/A   Mist
11:54 PM 39.9 °F - 39.0 °F 97% 29.96 in 0.8 mi Calm Calm - N/A   Mist